Location: *
(44.3925°N, 5.4708°E)
Time: 07:29:14
(UTC+00:00)

Cosmos 1455 Rocket - Pass Details

Date: 18 September 2019
Orbit: 605 x 629 km, 82.5° (Epoch: 15 October)

Event Time Altitude Azimuth Distance (km) Brightness Sun altitude
Exits shadow 20:16:20 33° 230° (SW) 1,045 4.3 -26.6°
Maximum altitude 20:17:53 49° 282° (WNW) 816 3.9 -26.8°
Drops below altitude 10° 20:22:13 10° 358° (N) 2,015 6.1 -27.5°
Sets 20:24:32 0° 4° (N) 2,929 6.9 -27.8°
